Time,TemperatureF,DewpointF,PressureIn,WindDirection,WindDirectionDegrees,WindSpeedMPH,WindSpeedGustMPH,Humidity,HourlyPrecipIn,Conditions,Clouds,dailyrainin,SoftwareType,DateUTC
2013-02-20 00:11:00,44.0,38.0,29.61,West,279,2.0,7.0,79,0.00,,,-99.99,,2013-02-20 08:11:00,
2013-02-20 00:21:00,44.0,36.0,29.61,West,277,5.0,19.0,72,0.00,,,-99.99,,2013-02-20 08:21:00,
2013-02-20 00:31:00,44.0,36.0,29.61,West,277,5.0,19.0,72,0.00,,,-99.99,,2013-02-20 08:31:00,
2013-02-20 00:41:00,44.0,36.0,29.61,West,277,5.0,19.0,72,0.00,,,-99.99,,2013-02-20 08:41:00,
2013-02-20 00:51:00,44.0,35.0,29.61,West,273,2.0,7.0,70,0.00,,,-99.99,,2013-02-20 08:51:00,
2013-02-20 01:01:00,44.0,35.0,29.61,West,273,2.0,7.0,70,0.00,,,-99.99,,2013-02-20 09:01:00,
2013-02-20 01:11:00,44.0,35.0,29.61,West,273,2.0,7.0,70,0.00,,,-99.99,,2013-02-20 09:11:00,
2013-02-20 01:21:00,44.0,32.0,29.61,West,261,2.0,11.0,62,0.00,,,-99.99,,2013-02-20 09:21:00,
2013-02-20 01:52:00,44.0,32.0,29.61,West,261,2.0,11.0,62,0.00,,,-99.99,,2013-02-20 09:52:00,
2013-02-20 02:01:00,44.0,32.0,29.61,West,261,2.0,11.0,62,0.00,,,-99.99,,2013-02-20 10:01:00,
2013-02-20 02:12:00,44.0,32.0,29.61,West,261,2.0,11.0,62,0.00,,,-99.99,,2013-02-20 10:12:00,
2013-02-20 02:21:00,44.0,32.0,29.61,West,275,0.0,5.0,62,0.00,,,-99.99,,2013-02-20 10:21:00,
2013-02-20 02:52:00,44.0,32.0,29.61,West,275,0.0,5.0,62,0.00,,,-99.99,,2013-02-20 10:52:00,
2013-02-20 03:02:00,44.0,32.0,29.61,West,275,0.0,5.0,62,0.00,,,-99.99,,2013-02-20 11:02:00,
2013-02-20 03:11:00,44.0,32.0,29.61,West,275,0.0,5.0,62,0.00,,,-99.99,,2013-02-20 11:11:00,
2013-02-20 03:52:00,44.0,31.0,29.60,WSW,251,2.0,8.0,61,0.00,,,-99.99,,2013-02-20 11:52:00,
2013-02-20 04:01:00,44.0,31.0,29.60,WSW,251,2.0,8.0,61,0.00,,,-99.99,,2013-02-20 12:01:00,
2013-02-20 04:11:00,44.0,31.0,29.60,WSW,251,2.0,8.0,61,0.00,,,-99.99,,2013-02-20 12:11:00,
2013-02-20 04:21:00,45.0,26.0,29.60,WNW,282,6.0,12.0,47,0.00,,,-99.99,,2013-02-20 12:21:00,
2013-02-20 04:31:00,45.0,26.0,29.60,WNW,282,6.0,12.0,47,0.00,,,-99.99,,2013-02-20 12:31:00,
2013-02-20 04:42:00,45.0,26.0,29.60,WNW,282,6.0,12.0,47,0.00,,,-99.99,,2013-02-20 12:42:00,
2013-02-20 04:52:00,44.0,27.0,29.62,West,265,1.0,6.0,51,0.00,,,-99.99,,2013-02-20 12:52:00,
2013-02-20 05:01:00,44.0,27.0,29.62,West,265,1.0,6.0,51,0.00,,,-99.99,,2013-02-20 13:01:00,
2013-02-20 05:11:00,44.0,27.0,29.62,West,265,1.0,6.0,51,0.00,,,-99.99,,2013-02-20 13:11:00,
2013-02-20 05:22:00,42.0,28.0,29.63,West,266,1.0,6.0,57,0.00,,,-99.99,,2013-02-20 13:22:00,
2013-02-20 05:31:00,42.0,28.0,29.63,West,266,1.0,6.0,57,0.00,,,-99.99,,2013-02-20 13:31:00,
2013-02-20 05:42:00,42.0,28.0,29.63,West,266,1.0,6.0,57,0.00,,,-99.99,,2013-02-20 13:42:00,
2013-02-20 05:51:00,42.0,28.0,29.63,West,280,2.0,6.0,57,0.00,,,-99.99,,2013-02-20 13:51:00,
2013-02-20 06:01:00,42.0,28.0,29.63,West,280,2.0,6.0,57,0.00,,,-99.99,,2013-02-20 14:01:00,
2013-02-20 06:11:00,42.0,28.0,29.63,West,280,2.0,6.0,57,0.00,,,-99.99,,2013-02-20 14:11:00,
2013-02-20 06:21:00,40.0,28.0,29.63,West,280,0.0,2.0,62,0.00,,,-99.99,,2013-02-20 14:21:00,
2013-02-20 06:32:00,40.0,28.0,29.63,West,280,0.0,2.0,62,0.00,,,-99.99,,2013-02-20 14:32:00,
2013-02-20 06:42:00,39.0,28.0,29.64,West,280,0.0,0.0,64,0.00,,,-99.99,,2013-02-20 14:42:00,
2013-02-20 06:52:00,39.0,28.0,29.64,West,280,0.0,0.0,64,0.00,,,-99.99,,2013-02-20 14:52:00,
2013-02-20 07:01:00,39.0,28.0,29.64,West,280,0.0,0.0,64,0.00,,,-99.99,,2013-02-20 15:01:00,
2013-02-20 07:11:00,39.0,28.0,29.65,West,280,0.0,1.0,64,0.00,,,-99.99,,2013-02-20 15:11:00,
2013-02-20 07:22:00,39.0,28.0,29.65,West,280,0.0,1.0,64,0.00,,,-99.99,,2013-02-20 15:22:00,
2013-02-20 07:32:00,39.0,28.0,29.65,West,280,0.0,1.0,64,0.00,,,-99.99,,2013-02-20 15:32:00,
2013-02-20 07:41:00,39.0,29.0,29.66,SW,235,0.0,2.0,66,0.00,,,-99.99,,2013-02-20 15:41:00,
2013-02-20 07:51:00,39.0,29.0,29.66,SW,235,0.0,2.0,66,0.00,,,-99.99,,2013-02-20 15:51:00,
2013-02-20 08:01:00,39.0,29.0,29.66,SW,235,0.0,2.0,66,0.00,,,-99.99,,2013-02-20 16:01:00,
2013-02-20 08:11:00,40.0,30.0,29.67,SW,236,0.0,1.0,68,0.00,,,-99.99,,2013-02-20 16:11:00,
2013-02-20 08:21:00,40.0,30.0,29.67,SW,236,0.0,1.0,68,0.00,,,-99.99,,2013-02-20 16:21:00,
2013-02-20 08:32:00,40.0,30.0,29.67,SW,236,0.0,1.0,68,0.00,,,-99.99,,2013-02-20 16:32:00,
2013-02-20 08:41:00,42.0,31.0,29.69,WNW,288,1.0,4.0,65,0.00,,,-99.99,,2013-02-20 16:41:00,
2013-02-20 08:51:00,42.0,31.0,29.69,WNW,288,1.0,4.0,65,0.00,,,-99.99,,2013-02-20 16:51:00,
2013-02-20 09:01:00,42.0,31.0,29.69,WNW,288,1.0,4.0,65,0.00,,,-99.99,,2013-02-20 17:01:00,
2013-02-20 09:11:00,44.0,33.0,29.69,NW,306,0.0,4.0,65,0.00,,,-99.99,,2013-02-20 17:11:00,
2013-02-20 09:21:00,44.0,33.0,29.69,NW,306,0.0,4.0,65,0.00,,,-99.99,,2013-02-20 17:21:00,
2013-02-20 09:32:00,44.0,33.0,29.69,NW,306,0.0,4.0,65,0.00,,,-99.99,,2013-02-20 17:32:00,
2013-02-20 09:41:00,44.0,33.0,29.69,NW,306,0.0,4.0,65,0.00,,,-99.99,,2013-02-20 17:41:00,
2013-02-20 10:21:00,52.0,33.0,29.71,East,94,0.0,5.0,48,0.00,,,-99.99,,2013-02-20 18:21:00,
2013-02-20 10:31:00,52.0,33.0,29.71,East,94,0.0,5.0,48,0.00,,,-99.99,,2013-02-20 18:31:00,
2013-02-20 10:41:00,52.0,33.0,29.71,East,94,0.0,5.0,48,0.00,,,-99.99,,2013-02-20 18:41:00,
2013-02-20 10:51:00,54.0,31.0,29.72,East,95,0.0,3.0,42,0.00,,,-99.99,,2013-02-20 18:51:00,
2013-02-20 11:01:00,54.0,31.0,29.72,East,95,0.0,3.0,42,0.00,,,-99.99,,2013-02-20 19:01:00,
2013-02-20 11:11:00,54.0,31.0,29.72,East,95,0.0,3.0,42,0.00,,,-99.99,,2013-02-20 19:11:00,
2013-02-20 12:11:00,58.0,33.0,29.73,West,277,1.0,4.0,38,0.00,,,-99.99,,2013-02-20 20:11:00,
2013-02-20 12:21:00,58.0,33.0,29.73,West,277,1.0,4.0,38,0.00,,,-99.99,,2013-02-20 20:21:00,
2013-02-20 12:31:00,58.0,33.0,29.73,West,277,1.0,4.0,38,0.00,,,-99.99,,2013-02-20 20:31:00,
2013-02-20 12:41:00,59.0,32.0,29.72,SW,231,2.0,8.0,36,0.00,,,-99.99,,2013-02-20 20:41:00,
2013-02-20 12:51:00,59.0,32.0,29.72,SW,231,2.0,8.0,36,0.00,,,-99.99,,2013-02-20 20:51:00,
2013-02-20 13:01:00,59.0,32.0,29.72,SW,231,2.0,8.0,36,0.00,,,-99.99,,2013-02-20 21:01:00,
2013-02-20 13:11:00,60.0,34.0,29.71,WSW,248,1.0,4.0,38,0.00,,,-99.99,,2013-02-20 21:11:00,
2013-02-20 13:21:00,60.0,34.0,29.71,WSW,248,1.0,4.0,38,0.00,,,-99.99,,2013-02-20 21:21:00,
2013-02-20 13:31:00,60.0,34.0,29.71,WSW,248,1.0,4.0,38,0.00,,,-99.99,,2013-02-20 21:31:00,
2013-02-20 13:41:00,60.0,34.0,29.71,WSW,248,1.0,4.0,38,0.00,,,-99.99,,2013-02-20 21:41:00,
2013-02-20 13:51:00,60.0,34.0,29.71,SSW,207,1.0,6.0,38,0.00,,,-99.99,,2013-02-20 21:51:00,
2013-02-20 14:01:00,60.0,34.0,29.71,SSW,207,1.0,6.0,38,0.00,,,-99.99,,2013-02-20 22:01:00,
2013-02-20 14:11:00,60.0,34.0,29.71,SSW,207,1.0,6.0,38,0.00,,,-99.99,,2013-02-20 22:11:00,
2013-02-20 14:21:00,62.0,35.0,29.71,SW,218,1.0,8.0,37,0.00,,,-99.99,,2013-02-20 22:21:00,
2013-02-20 14:52:00,62.0,35.0,29.71,SW,218,1.0,8.0,37,0.00,,,-99.99,,2013-02-20 22:52:00,
2013-02-20 15:01:00,62.0,35.0,29.71,SW,218,1.0,8.0,37,0.00,,,-99.99,,2013-02-20 23:01:00,
2013-02-20 15:12:00,62.0,35.0,29.71,SW,218,1.0,8.0,37,0.00,,,-99.99,,2013-02-20 23:12:00,
2013-02-20 16:21:00,59.0,42.0,29.71,South,171,1.0,4.0,53,0.00,,,-99.99,,2013-02-21 00:21:00,
2013-02-20 16:32:00,59.0,42.0,29.71,South,171,1.0,4.0,53,0.00,,,-99.99,,2013-02-21 00:32:00,
2013-02-20 16:52:00,59.0,25.0,29.72,West,260,4.0,15.0,27,0.00,,,-99.99,,2013-02-21 00:52:00,
2013-02-20 17:01:00,59.0,25.0,29.72,West,260,4.0,15.0,27,0.00,,,-99.99,,2013-02-21 01:01:00,
2013-02-20 17:21:00,60.0,24.0,29.72,West,275,8.0,18.0,25,0.00,,,-99.99,,2013-02-21 01:21:00,
2013-02-20 17:51:00,59.0,24.0,29.74,WNW,286,6.0,12.0,26,0.00,,,-99.99,,2013-02-21 01:51:00,
2013-02-20 18:01:00,59.0,24.0,29.74,WNW,286,6.0,12.0,26,0.00,,,-99.99,,2013-02-21 02:01:00,
2013-02-20 21:59:00,48.0,29.0,29.85,ENE,61,1.0,5.0,48,0.00,,,-99.99,,2013-02-21 05:59:00,
2013-02-20 22:01:00,48.0,29.0,29.85,ENE,61,1.0,5.0,48,0.00,,,-99.99,,2013-02-21 06:01:00,
2013-02-20 22:11:00,47.0,29.0,29.85,ENE,61,0.0,1.0,50,0.00,,,-99.99,,2013-02-21 06:11:00,
2013-02-20 22:21:00,47.0,29.0,29.85,ENE,61,0.0,1.0,50,0.00,,,-99.99,,2013-02-21 06:21:00,
2013-02-20 22:31:00,47.0,29.0,29.85,ENE,61,0.0,1.0,50,0.00,,,-99.99,,2013-02-21 06:31:00,
2013-02-20 22:41:00,45.0,29.0,29.86,ENE,61,2.0,5.0,54,0.00,,,-99.99,,2013-02-21 06:41:00,
2013-02-20 22:51:00,45.0,29.0,29.86,ENE,61,2.0,5.0,54,0.00,,,-99.99,,2013-02-21 06:51:00,
2013-02-20 23:01:00,45.0,29.0,29.86,ENE,61,2.0,5.0,54,0.00,,,-99.99,,2013-02-21 07:01:00,
2013-02-20 23:11:00,44.0,31.0,29.86,ENE,61,0.0,2.0,59,0.00,,,-99.99,,2013-02-21 07:11:00,
2013-02-20 23:21:00,44.0,31.0,29.86,ENE,61,0.0,2.0,59,0.00,,,-99.99,,2013-02-21 07:21:00,
2013-02-20 23:31:00,44.0,31.0,29.86,ENE,61,0.0,2.0,59,0.00,,,-99.99,,2013-02-21 07:31:00,
2013-02-20 23:41:00,44.0,31.0,29.86,ENE,61,0.0,2.0,59,0.00,,,-99.99,,2013-02-21 07:41:00,